Regional Weather Roundup
Issued by NWS

Home | Current Version | Previous Version | Text Only | Print | Product List | Glossary Off
Versions: 1 2 3 4 5 6 7 8 9 10 11 12 13 14 15 16 17 18 19 20 21 22 23 24 25 26 27 28 29 30 31 32 33 34 35 36 37 38 39 40 41 42 43 44 45 46 47 48 49 50

000
ASUS43 KLOT 010410
RWRIL

ILLINOIS REGIONAL WEATHER ROUNDUP
NATIONAL WEATHER SERVICE CHICAGO/ROMEOVILLE IL
1100 PM CDT TUE SEP 30 2014

NOTE: "FAIR" INDICATES FEW OR NO CLOUDS BELOW 12,000 FEET WITH NO
SIGNIFICANT WEATHER AND/OR OBSTRUCTIONS TO VISIBILITY.

* THESE STATIONS ARE NOT UNDER NWS QUALITY CONTROL. THEY ALSO MAY NOT
  REPORT WEATHER SUCH AS PRECIPITATION OR FOG.

ILZ001-002-007-009-015-016-024-010500-
NORTHWEST ILLINOIS

CITY           SKY/WX    TMP DP  RH WIND       PRES   REMARKS
MOLINE         NOT AVBL
SAVANNA*       CLEAR     51  45  80 E6        29.99F
$$

ILZ003-004-008-010-011-017-018-010500-
NORTH CENTRAL ILLINOIS

CITY           SKY/WX    TMP DP  RH WIND       PRES   REMARKS
ROCKFORD       CLOUDY    52  45  77 E10       30.04F
FREEPORT*      PTCLDY    44  42  94 E6        30.03F
ROCHELLE*      MOCLDY    49  46  89 E6        30.02F
DE KALB*       CLOUDY    51  46  82 E13       30.03F
PERU*          CLEAR     51  46  84 E8        30.01S
$$

ILZ005-006-012>014-019>023-010500-
NORTHEAST ILLINOIS

CITY           SKY/WX    TMP DP  RH WIND       PRES   REMARKS
CHICAGO-OHARE  CLOUDY    55  47  74 E7        30.02S
CHICAGO-MIDWAY CLOUDY    58  48  69 E7        30.02S
AURORA         CLOUDY    54  47  77 NE6       30.02F
LANSING*       MOCLDY    51  46  82 E5        30.03S
JOLIET*        CLOUDY    54  49  85 NE6       30.02S
WAUKEGAN       CLOUDY    52  50  93 NW3       30.03S
DUPAGE AIRPORT CLOUDY    54  49  83 NE5       30.02S
KANKAKEE*      PTCLDY    49  46  88 NE7       30.03S
WHEELING       CLOUDY    56  49  77 CALM      30.03S
MORRIS*        CLOUDY    54  50  87 E5        30.01S
ROMEOVILLE*    CLOUDY    54  49  83 E6        30.02F
NORTHERLY ISL    N/A     56  48  74 E10         N/A
$$

LMZ740>746-010500-
SOUTHERN LAKE MICHIGAN

STATION/POSITION SKY/WX   TEMP    WIND        PRES    VSBY  WAVE
                          AIR SEA DIR/SP/G                  HT/PER
                          (F)     (DEG/KT/KT) (MB)    (MI)  (FT/S)
SOUTHERN BUOY              56 61   50/  8/ 10 1017.3F         2/ 6
WAUKEGAN HARBOR            56      90/  4/  6   N/A
HARRISON CRIB              56     100/ 13/ 17   N/A
BURNHAM HARBOR             56      80/  9/ 13   N/A
CALUMET HARBOR             56      40/  6/ 11 1015.6S
MICHIGAN CITY              53      60/  4/  5   N/A
MICHIGAN CITY 6N           55 64  110/  6/ 10   N/A           3/ 2
ST. JOSEPH                 56 62  100/  4/  8   N/A           2/ 2
$$

ILZ025>027-034>036-040-047-049-050-058-095>099-010500-
WEST-CENTRAL ILLINOIS

CITY           SKY/WX    TMP DP  RH WIND       PRES   REMARKS
QUINCY         CLEAR     63  56  78 E10       29.90S
GALESBURG*     CLEAR     54  48  80 E8        29.95F
MACOMB*        CLEAR     55  53  90 E6        29.96S
JACKSONVILLE*  CLEAR     61  57  86 E8        29.93F FOG
PITTSFIELD*    CLEAR     62  57  85 NE7       29.92S HAZE
$$

ILZ028>032-037-038-041>044-048-051>054-059>061-010500-
CENTRAL ILLINOIS

CITY           SKY/WX    TMP DP  RH WIND       PRES   REMARKS
PONTIAC        CLEAR     52  48  87 E6        29.99F
DECATUR        CLEAR     56  49  77 E9        29.98R
PEORIA         CLEAR     57  48  72 E16       29.97F
LACON*         PTCLDY    51  46  83 CALM      29.99S
LINCOLN*       CLEAR     57  49  76 E8        29.95S
SPRINGFIELD    CLEAR     60  51  72 E12       29.95R
TAYLORVILLE    CLEAR     59  50  72 E10       29.95S
$$

ILZ033-039-045-046-055>057-062-063-010500-
EAST-CENTRAL ILLINOIS

CITY           SKY/WX    TMP DP  RH WIND       PRES   REMARKS
CHAMPAIGN      CLEAR     54  48  82 E13G20    29.99S
DANVILLE*      CLEAR     50  47  88 NE5       29.98S
RANTOUL*       CLEAR     54  47  76 NE8       30.01S
MATTOON        CLEAR     56  49  77 NE7       29.97R
PARIS*         CLEAR     55  50  83 NE5       29.99S
$$

ILZ079-100>102-010500-
SOUTHWEST ILLINOIS

CITY           SKY/WX    TMP DP  RH WIND       PRES   REMARKS
ALTON          CLEAR     64  59  84 E5        29.92S
BELLEVILLE     CLEAR     66  63  88 SE5       29.91R
CAHOKIA*       CLEAR     70  60  70 SE5       29.90R
SPARTA*        CLEAR     63  57  81 E5        29.92S
$$

ILZ064>066-069>071-074>076-080>082-084>086-088>090-092>094-010500-
SOUTH-CENTRAL ILLINOIS

CITY           SKY/WX    TMP DP  RH WIND       PRES   REMARKS
CARBONDALE     CLEAR     59  55  87 E3        29.91R
CAIRO*         CLEAR     60  56  88 CALM      29.90S
EFFINGHAM*     RAIN      62  53  72 E3        29.95S
MARION         PTCLDY    66  59  77 CALM      29.93R
CENTRALIA*     CLEAR     65  58  79 E6        29.93R
SALEM*         CLEAR     68  61  79 E8        29.93S
METROPOLIS*    CLEAR     59  58  98 SW3       29.90S
$$

ILZ067-068-072-073-078-083-087-091-010500-
SOUTHEAST ILLINOIS

CITY           SKY/WX    TMP DP  RH WIND       PRES   REMARKS
LAWRENCEVILLE  CLEAR     61  57  87 NE6       29.96R
FLORA*         CLEAR     64  57  80 NE6       29.95R
FAIRFIELD*     CLEAR     64  61  88 NE5       29.93S
HARRISBURG*    CLEAR     62  61  94 CALM      29.94R
ROBINSON*      CLEAR     60  56  88 NE7       29.96S
CARMI*         CLEAR     63  61  94 NE3       29.92S
$$

ABBREVIATIONS USED IN REMARKS
   TC - TEMPERATURE IN CELSIUS
  WCI - WIND CHILL INDEX
   HX - HEAT INDEX
  VSB - VISIBILITY
$$




USA.gov is the U.S. government's official web portal to all federal, state and local government web resources and services.